Location: Orangeville
(43.9200°N, 80.0943°W)
Time: 08:56:24
(UTC-05:00)

ISS - Pass Details

Date: 30 November 2021
Orbit: 413 x 422 km, 51.6° (Epoch: 24 January)

Event Time Altitude Azimuth Distance (km) Brightness Sun altitude
Rises 17:59:44 0° 296° (WNW) 2,383 0.8 -13.3°
Reaches altitude 10° 18:02:09 10° 312° (NW) 1,515 -0.5 -13.7°
Maximum altitude 18:04:54 22° 7° (N) 968 -2.2 -14.2°
Enters shadow 18:05:47 20° 30° (NNE) 1,035 -2.2 -14.3°
